QPF
0.01 0.01 0.01 0.01 0.01 0.01 0.02 0.01 0.01 0.01 0.01 0.01 0.01 0.01 0.01 0.01 0.01 0.01 0.01 0.01 0.01 0.01 0.01 0.02 0.03 0.04 0.03 0.03 0.03 0.03 0.04 0.04 0.05 0.06 0.07 0.07 0.07 0.06 0.05 0.05 0.04 0.03 0.03
0.01 0.01 0.01 0.01 0.01 0.01 0.01 0.01 0.01 0.01 0.01 0.01 0.01 0.01 0.01 0.01 0.01 0.01 0.01 0.01 0.01 0.01 0.01 0.02 0.02 0.02 0.03 0.03 0.03 0.03 0.03 0.04 0.05 0.06 0.07 0.07 0.07 0.07 0.07 0.06 0.05 0.04 0.03
0.01 0.01 0.01 0.01 0.01 0.01 0.00 0.01 0.01 0.01 0.01 0.01 0.01 0.02 0.01 0.01 0.01 0.01 0.01 0.02 0.01 0.01 0.01 0.01 0.02 0.03 0.04 0.04 0.04 0.03 0.03 0.03 0.04 0.05 0.06 0.05 0.06 0.06 0.05 0.05 0.04 0.06 0.06
0.01 0.01 0.01 0.01 0.01 0.01 0.01 0.01 0.01 0.01 0.01 0.01 0.01 0.02 0.02 0.01 0.00 0.01 0.02 0.02 0.01 0.01 0.00 0.01 0.02 0.02 0.04 0.03 0.02 0.02 0.02 0.02 0.02 0.03 0.05 0.05 0.06 0.06 0.06 0.05 0.05 0.05 0.05
0.01 0.01 0.01 0.01 0.01 0.01 0.01 0.01 0.02 0.02 0.02 0.02 0.02 0.02 0.02 0.01 0.01 0.01 0.01 0.01 0.01 0.01 0.01 0.01 0.01 0.01 0.01 0.01 0.01 0.02 0.02 0.02 0.03 0.04 0.05 0.06 0.06 0.06 0.06 0.05 0.05 0.05 0.04
0.02 0.02 0.01 0.01 0.01 0.01 0.01 0.02 0.02 0.02 0.03 0.03 0.01 0.02 0.02 0.01 0.01 0.02 0.02 0.01 0.02 0.02 0.01 0.01 0.01 0.01 0.01 0.01 0.01 0.01 0.02 0.03 0.04 0.04 0.05 0.06 0.07 0.06 0.05 0.04 0.04 0.05 0.05
0.03 0.03 0.02 0.01 0.01 0.01 0.01 0.02 0.03 0.04 0.03 0.02 0.02 0.03 0.03 0.02 0.02 0.02 0.02 0.01 0.01 0.01 0.02 0.02 0.01 0.00 0.01 0.02 0.03 0.03 0.04 0.04 0.04 0.04 0.05 0.06 0.06 0.06 0.05 0.05 0.05 0.05 0.04
0.03 0.04 0.03 0.03 0.02 0.01 0.02 0.03 0.04 0.04 0.03 0.03 0.03 0.03 0.03 0.02 0.02 0.02 0.02 0.02 0.02 0.01 0.01 0.01 0.01 0.01 0.01 0.03 0.05 0.06 0.07 0.07 0.07 0.06 0.08 0.07 0.05 0.05 0.05 0.04 0.04 0.04 0.04
0.04 0.04 0.03 0.03 0.03 0.03 0.03 0.03 0.03 0.03 0.03 0.02 0.02 0.02 0.03 0.02 0.02 0.01 0.01 0.02 0.02 0.02 0.02 0.02 0.02 0.01 0.02 0.03 0.05 0.07 0.08 0.08 0.08 0.07 0.08 0.08 0.07 0.05 0.05 0.04 0.04 0.04 0.04
0.05 0.05 0.04 0.04 0.04 0.03 0.02 0.02 0.02 0.02 0.02 0.01 0.02 0.02 0.02 0.02 0.02 0.02 0.02 0.02 0.03 0.03 0.03 0.03 0.03 0.03 0.03 0.04 0.05 0.06 0.08 0.09 0.07 0.09 0.10 0.10 0.07 0.05 0.04 0.03 0.03 0.04 0.04
0.05 0.05 0.05 0.04 0.02 0.01 0.02 0.02 0.02 0.01 0.01 0.02 0.02 0.01 0.01 0.01 0.02 0.02 0.03 0.02 0.02 0.03 0.03 0.05 0.05 0.06 0.05 0.05 0.05 0.06 0.07 0.08 0.07 0.07 0.07 0.08 0.08 0.06 0.04 0.02 0.02 0.03 0.04
0.05 0.06 0.04 0.03 0.01 0.01 0.01 0.01 0.01 0.01 0.01 0.01 0.01 0.01 0.01 0.01 0.02 0.02 0.04 0.04 0.02 0.02 0.03 0.05 0.06 0.06 0.05 0.05 0.05 0.05 0.05 0.05 0.05 0.05 0.06 0.06 0.06 0.05 0.03 0.02 0.02 0.02 0.03
0.04 0.04 0.03 0.03 0.01 0.01 0.01 0.01 0.01 0.01 0.01 0.00 0.01 0.01 0.01 0.01 0.02 0.02 0.03 0.03 0.02 0.02 0.03 0.04 0.04 0.05 0.05 0.04 0.04 0.04 0.04 0.04 0.04 0.04 0.04 0.04 0.03 0.03 0.02 0.02 0.02 0.03 0.02
0.04 0.04 0.04 0.03 0.01 0.01 0.01 0.01 0.01 0.01 0.01 0.01 0.01 0.01 0.01 0.02 0.02 0.02 0.02 0.02 0.02 0.02 0.02 0.02 0.02 0.02 0.02 0.02 0.02 0.02 0.02 0.02 0.02 0.03 0.03 0.02 0.02 0.02 0.02 0.02 0.02 0.03 0.02
0.03 0.03 0.03 0.01 0.01 0.01 0.00 0.00 0.00 0.00 0.00 0.01 0.00 0.00 0.01 0.02 0.02 0.03 0.03 0.01 0.01 0.01 0.01 0.01 0.01 0.01 0.01 0.00 0.01 0.01 0.01 0.01 0.02 0.02 0.02 0.02 0.02 0.02 0.02 0.02 0.02 0.02 0.02
0.02 0.01 0.01 0.01 0.01 0.00 0.00 0.00 0.00 0.00 0.00 0.00 0.00 0.00 0.00 0.02 0.02 0.03 0.02 0.01 0.00 0.00 0.00 0.01 0.00 0.00 0.00 0.00 0.00 0.00 0.00 0.01 0.01 0.01 0.01 0.01 0.01 0.01 0.02 0.02 0.02 0.02 0.02
0.01 0.01 0.00 0.00 0.00 0.00 0.00 0.00 0.00 0.00 0.00 0.00 0.00 0.00 0.00 0.01 0.02 0.02 0.01 0.00 0.00 0.00 0.00 0.00 0.00 0.00 0.00 0.00 0.00 0.00 0.00 0.00 0.00 0.01 0.01 0.01 0.01 0.01 0.01 0.01 0.01 0.01 0.01
0.01 0.00 0.00 0.00 0.00 0.00 0.00 0.00 0.00 0.00 0.00 0.00 0.00 0.00 0.00 0.01 0.01 0.01 0.01 0.00 0.00 0.00 0.00 0.00 0.00 0.00 0.00 0.00 0.00 0.00 0.00 0.00 0.00 0.00 0.00 0.00 0.01 0.01 0.01 0.01 0.01 0.01 0.01
0.00 0.00 0.00 0.00 0.00 0.01 0.01 0.01 0.01 0.00 0.00 0.00 0.00 0.00 0.00 0.00 0.00 0.00 0.00 0.00 0.00 0.00 0.00 0.00 0.00 0.00 0.00 0.00 0.00 0.00 0.00 0.00 0.00 0.00 0.00 0.00 0.00 0.00 0.00 0.00 0.00 0.00 0.00
0.00 0.00 0.00 0.00 0.00 0.00 0.01 0.01 0.01 0.00 0.01 0.00 0.00 0.00 0.00 0.00 0.00 0.00 0.00 0.00 0.00 0.00 0.00 0.00 0.00 0.00 0.00 0.00 0.00 0.00 0.00 0.00 0.00 0.00 0.00 0.00 0.00 0.00 0.00 0.00 0.00 0.00 0.00
0.00 0.00 0.00 0.00 0.00 0.00 0.00 0.00 0.00 0.00 0.00 0.00 0.00 0.00 0.00 0.00 0.00 0.00 0.00 0.00 0.00 0.00 0.00 0.00 0.00 0.00 0.00 0.00 0.00 0.00 0.00 0.00 0.00 0.00 0.00 0.00 0.00 0.00 0.00 0.00 0.00 0.00 0.00
0.00 0.00 0.00 0.00 0.00 0.00 0.00 0.00 0.00 0.00 0.00 0.00 0.00 0.00 0.00 0.00 0.00 0.00 0.00 0.00 0.00 0.00 0.00 0.00 0.00 0.00 0.00 0.00 0.00 0.00 0.00 0.00 0.00 0.00 0.00 0.00 0.00 0.00 0.00 0.00 0.00 0.00 0.00
0.00 0.00 0.00 0.00 0.00 0.00 0.00 0.00 0.00 0.00 0.00 0.00 0.00 0.00 0.00 0.00 0.00 0.00 0.00 0.00 0.00 0.00 0.00 0.00 0.00 0.00 0.00 0.00 0.00 0.00 0.00 0.00 0.00 0.00 0.00 0.00 0.00 0.00 0.00 0.00 0.00 0.00 0.00
0.00 0.00 0.00 0.00 0.00 0.00 0.00 0.00 0.00 0.00 0.00 0.00 0.00 0.00 0.00 0.00 0.00 0.00 0.00 0.00 0.00 0.00 0.00 0.00 0.00 0.00 0.00 0.00 0.00 0.00 0.00 0.00 0.00 0.00 0.00 0.00 0.00 0.00 0.00 0.00 0.00 0.00 0.00
0.00 0.00 0.00 0.00 0.00 0.00 0.00 0.00 0.00 0.00 0.00 0.00 0.00 0.00 0.00 0.00 0.00 0.00 0.00 0.00 0.00 0.00 0.00 0.00 0.00 0.00 0.00 0.00 0.00 0.00 0.00 0.00 0.00 0.00 0.00 0.00 0.00 0.00 0.00 0.00 0.00 0.00 0.00
0.00 0.00 0.00 0.00 0.00 0.00 0.00 0.00 0.00 0.00 0.00 0.00 0.00 0.00 0.00 0.00 0.00 0.00 0.00 0.00 0.00 0.00 0.00 0.00 0.00 0.00 0.00 0.00 0.00 0.00 0.00 0.00 0.00 0.00 0.00 0.00 0.00 0.00 0.00 0.00 0.00 0.00 0.00
MSLP
1017.08 1017.31 1017.53 1017.75 1017.96 1018.17 1018.36 1018.52 1018.66 1018.77 1018.84 1018.87 1018.87 1018.85 1018.82 1018.77 1018.72 1018.67 1018.62 1018.56 1018.49 1018.41 1018.32 1018.22 1018.12 1018.03 1017.99 1018.01 1018.11 1018.31 1018.61 1018.99 1019.45 1019.95 1020.47 1020.97 1021.42 1021.82 1022.14 1022.40 1022.62 1022.80 1022.98
1017.54 1017.81 1018.06 1018.28 1018.47 1018.64 1018.78 1018.90 1018.99 1019.05 1019.08 1019.09 1019.07 1019.04 1018.99 1018.92 1018.85 1018.78 1018.69 1018.60 1018.49 1018.37 1018.24 1018.11 1017.98 1017.87 1017.82 1017.83 1017.93 1018.14 1018.45 1018.87 1019.37 1019.93 1020.51 1021.07 1021.58 1022.03 1022.38 1022.66 1022.86 1023.02 1023.15
1018.07 1018.39 1018.66 1018.88 1019.05 1019.18 1019.28 1019.34 1019.38 1019.40 1019.40 1019.39 1019.37 1019.33 1019.27 1019.21 1019.12 1019.03 1018.91 1018.78 1018.63 1018.47 1018.30 1018.12 1017.96 1017.83 1017.76 1017.76 1017.85 1018.06 1018.38 1018.80 1019.31 1019.89 1020.48 1021.06 1021.59 1022.04 1022.41 1022.67 1022.86 1022.98 1023.06
1018.71 1019.07 1019.35 1019.56 1019.70 1019.79 1019.83 1019.84 1019.84 1019.83 1019.81 1019.79 1019.77 1019.73 1019.69 1019.62 1019.53 1019.41 1019.27 1019.10 1018.90 1018.69 1018.47 1018.26 1018.06 1017.90 1017.80 1017.78 1017.86 1018.05 1018.35 1018.76 1019.25 1019.81 1020.38 1020.94 1021.45 1021.89 1022.23 1022.48 1022.64 1022.73 1022.78
1019.44 1019.81 1020.08 1020.27 1020.38 1020.42 1020.41 1020.39 1020.35 1020.31 1020.28 1020.27 1020.25 1020.23 1020.19 1020.12 1020.03 1019.89 1019.72 1019.50 1019.26 1019.00 1018.73 1018.47 1018.24 1018.05 1017.92 1017.88 1017.93 1018.09 1018.36 1018.73 1019.18 1019.68 1020.21 1020.72 1021.20 1021.59 1021.91 1022.12 1022.26 1022.33 1022.36
1020.23 1020.57 1020.82 1020.97 1021.03 1021.03 1020.98 1020.92 1020.85 1020.80 1020.78 1020.76 1020.76 1020.75 1020.72 1020.66 1020.55 1020.40 1020.19 1019.94 1019.65 1019.34 1019.03 1018.73 1018.46 1018.23 1018.08 1018.00 1018.02 1018.15 1018.37 1018.68 1019.07 1019.51 1019.98 1020.43 1020.85 1021.20 1021.48 1021.67 1021.79 1021.85 1021.87
1020.99 1021.29 1021.49 1021.59 1021.60 1021.56 1021.48 1021.39 1021.31 1021.26 1021.23 1021.23 1021.24 1021.24 1021.22 1021.16 1021.04 1020.87 1020.64 1020.35 1020.03 1019.68 1019.33 1018.99 1018.69 1018.44 1018.25 1018.15 1018.14 1018.22 1018.39 1018.64 1018.96 1019.33 1019.73 1020.11 1020.47 1020.78 1021.02 1021.20 1021.31 1021.36 1021.38
1021.68 1021.91 1022.04 1022.09 1022.07 1021.99 1021.88 1021.78 1021.69 1021.64 1021.62 1021.63 1021.65 1021.67 1021.65 1021.59 1021.46 1021.28 1021.03 1020.72 1020.37 1020.00 1019.63 1019.27 1018.95 1018.68 1018.47 1018.35 1018.30 1018.34 1018.45 1018.64 1018.90 1019.19 1019.51 1019.83 1020.13 1020.40 1020.61 1020.77 1020.87 1020.93 1020.95
1022.22 1022.38 1022.46 1022.47 1022.40 1022.30 1022.19 1022.08 1021.99 1021.95 1021.94 1021.96 1021.99 1022.01 1022.00 1021.94 1021.81 1021.62 1021.36 1021.04 1020.69 1020.31 1019.93 1019.58 1019.25 1018.98 1018.76 1018.62 1018.55 1018.55 1018.61 1018.75 1018.93 1019.15 1019.40 1019.66 1019.90 1020.12 1020.31 1020.45 1020.54 1020.60 1020.62
1022.62 1022.72 1022.76 1022.73 1022.65 1022.54 1022.42 1022.32 1022.25 1022.22 1022.22 1022.25 1022.29 1022.31 1022.30 1022.24 1022.11 1021.92 1021.67 1021.36 1021.01 1020.65 1020.29 1019.94 1019.63 1019.37 1019.15 1019.00 1018.91 1018.88 1018.91 1018.99 1019.11 1019.27 1019.45 1019.64 1019.83 1020.00 1020.15 1020.26 1020.35 1020.39 1020.40
1022.87 1022.94 1022.96 1022.92 1022.84 1022.74 1022.64 1022.56 1022.51 1022.49 1022.50 1022.54 1022.58 1022.61 1022.60 1022.54 1022.42 1022.23 1021.99 1021.70 1021.38 1021.04 1020.70 1020.38 1020.09 1019.84 1019.64 1019.49 1019.39 1019.34 1019.33 1019.37 1019.44 1019.53 1019.65 1019.78 1019.91 1020.03 1020.13 1020.22 1020.27 1020.30 1020.29
1023.02 1023.09 1023.11 1023.09 1023.03 1022.96 1022.88 1022.82 1022.79 1022.79 1022.82 1022.86 1022.90 1022.93 1022.92 1022.86 1022.75 1022.57 1022.35 1022.07 1021.77 1021.46 1021.15 1020.86 1020.59 1020.37 1020.18 1020.04 1019.94 1019.88 1019.85 1019.85 1019.88 1019.92 1019.98 1020.05 1020.11 1020.18 1020.23 1020.27 1020.28 1020.28 1020.24
1023.13 1023.22 1023.26 1023.27 1023.24 1023.20 1023.15 1023.12 1023.11 1023.12 1023.16 1023.21 1023.26 1023.28 1023.27 1023.22 1023.10 1022.93 1022.72 1022.46 1022.17 1021.88 1021.59 1021.32 1021.07 1020.86 1020.69 1020.56 1020.46 1020.40 1020.35 1020.33 1020.33 1020.33 1020.35 1020.36 1020.36 1020.37 1020.36 1020.35 1020.31 1020.26 1020.20
1023.23 1023.35 1023.43 1023.46 1023.47 1023.45 1023.43 1023.43 1023.43 1023.47 1023.51 1023.57 1023.62 1023.64 1023.63 1023.57 1023.45 1023.28 1023.06 1022.80 1022.52 1022.22 1021.94 1021.67 1021.43 1021.23 1021.07 1020.95 1020.85 1020.79 1020.75 1020.71 1020.69 1020.67 1020.64 1020.61 1020.57 1020.51 1020.45 1020.37 1020.29 1020.19 1020.09
1023.36 1023.50 1023.60 1023.66 1023.68 1023.68 1023.68 1023.68 1023.71 1023.75 1023.81 1023.87 1023.92 1023.94 1023.93 1023.86 1023.73 1023.55 1023.32 1023.04 1022.74 1022.43 1022.13 1021.85 1021.60 1021.39 1021.23 1021.11 1021.02 1020.96 1020.92 1020.89 1020.86 1020.82 1020.77 1020.71 1020.63 1020.52 1020.41 1020.28 1020.15 1020.00 1019.86
1023.51 1023.65 1023.75 1023.80 1023.82 1023.82 1023.82 1023.83 1023.86 1023.91 1023.98 1024.05 1024.10 1024.13 1024.11 1024.03 1023.89 1023.69 1023.43 1023.12 1022.79 1022.45 1022.11 1021.80 1021.53 1021.31 1021.13 1021.00 1020.92 1020.86 1020.83 1020.81 1020.78 1020.74 1020.68 1020.60 1020.49 1020.35 1020.20 1020.03 1019.84 1019.66 1019.47
1023.65 1023.76 1023.83 1023.85 1023.84 1023.81 1023.80 1023.81 1023.84 1023.90 1023.97 1024.05 1024.12 1024.15 1024.13 1024.05 1023.89 1023.67 1023.38 1023.04 1022.67 1022.28 1021.91 1021.56 1021.26 1021.00 1020.81 1020.67 1020.59 1020.54 1020.51 1020.50 1020.48 1020.44 1020.38 1020.28 1020.16 1019.99 1019.81 1019.61 1019.39 1019.17 1018.95
1023.74 1023.80 1023.80 1023.76 1023.70 1023.64 1023.61 1023.60 1023.63 1023.69 1023.78 1023.87 1023.95 1023.99 1023.98 1023.90 1023.74 1023.50 1023.19 1022.81 1022.41 1021.99 1021.57 1021.19 1020.85 1020.58 1020.36 1020.21 1020.12 1020.07 1020.04 1020.03 1020.02 1019.98 1019.92 1019.82 1019.67 1019.50 1019.29 1019.06 1018.82 1018.56 1018.31
1023.75 1023.73 1023.65 1023.54 1023.42 1023.32 1023.25 1023.23 1023.25 1023.32 1023.42 1023.53 1023.63 1023.68 1023.68 1023.60 1023.44 1023.20 1022.88 1022.49 1022.07 1021.62 1021.19 1020.79 1020.43 1020.13 1019.90 1019.74 1019.64 1019.58 1019.55 1019.53 1019.51 1019.47 1019.39 1019.28 1019.13 1018.93 1018.71 1018.45 1018.18 1017.90 1017.61
1023.66 1023.54 1023.38 1023.20 1023.03 1022.88 1022.78 1022.75 1022.77 1022.84 1022.95 1023.08 1023.19 1023.26 1023.27 1023.21 1023.06 1022.82 1022.51 1022.13 1021.71 1021.27 1020.84 1020.43 1020.08 1019.78 1019.54 1019.37 1019.26 1019.18 1019.14 1019.10 1019.05 1018.99 1018.89 1018.76 1018.59 1018.37 1018.12 1017.85 1017.55 1017.24 1016.92
1023.47 1023.27 1023.04 1022.80 1022.58 1022.40 1022.28 1022.23 1022.25 1022.33 1022.44 1022.58 1022.70 1022.78 1022.81 1022.76 1022.62 1022.41 1022.12 1021.76 1021.37 1020.96 1020.56 1020.18 1019.84 1019.56 1019.33 1019.16 1019.03 1018.94 1018.87 1018.80 1018.72 1018.62 1018.49 1018.32 1018.11 1017.87 1017.60 1017.30 1016.98 1016.64 1016.29
1023.21 1022.95 1022.67 1022.39 1022.15 1021.95 1021.82 1021.77 1021.78 1021.85 1021.96 1022.09 1022.21 1022.29 1022.32 1022.28 1022.17 1021.98 1021.72 1021.41 1021.07 1020.71 1020.36 1020.03 1019.73 1019.48 1019.27 1019.11 1018.97 1018.86 1018.75 1018.64 1018.52 1018.37 1018.19 1017.98 1017.73 1017.46 1017.16 1016.83 1016.49 1016.12 1015.74
1022.92 1022.63 1022.33 1022.04 1021.79 1021.59 1021.46 1021.40 1021.40 1021.46 1021.55 1021.66 1021.75 1021.82 1021.84 1021.80 1021.69 1021.52 1021.31 1021.04 1020.76 1020.47 1020.18 1019.91 1019.68 1019.47 1019.29 1019.14 1019.00 1018.87 1018.73 1018.58 1018.40 1018.20 1017.97 1017.72 1017.43 1017.12 1016.79 1016.44 1016.08 1015.69 1015.28
1022.63 1022.34 1022.04 1021.77 1021.52 1021.33 1021.20 1021.14 1021.12 1021.15 1021.21 1021.28 1021.33 1021.36 1021.35 1021.30 1021.19 1021.04 1020.85 1020.64 1020.41 1020.18 1019.96 1019.76 1019.58 1019.42 1019.28 1019.15 1019.01 1018.87 1018.70 1018.52 1018.30 1018.06 1017.78 1017.48 1017.17 1016.83 1016.48 1016.11 1015.73 1015.33 1014.91
1022.36 1022.09 1021.82 1021.57 1021.35 1021.18 1021.05 1020.96 1020.92 1020.91 1020.92 1020.94 1020.94 1020.92 1020.86 1020.78 1020.65 1020.51 1020.33 1020.15 1019.97 1019.80 1019.64 1019.50 1019.37 1019.26 1019.15 1019.04 1018.92 1018.77 1018.59 1018.39 1018.14 1017.87 1017.57 1017.24 1016.90 1016.55 1016.19 1015.81 1015.43 1015.03 1014.61
1022.11 1021.88 1021.65 1021.43 1021.23 1021.07 1020.93 1020.83 1020.76 1020.70 1020.66 1020.61 1020.55 1020.46 1020.36 1020.23 1020.08 1019.92 1019.76 1019.59 1019.44 1019.31 1019.19 1019.09 1019.01 1018.94 1018.86 1018.77 1018.66 1018.52 1018.35 1018.14 1017.89 1017.61 1017.31 1016.97 1016.63 1016.27 1015.91 1015.53 1015.16 1014.76 1014.35
Thickness
5607 5603 5599 5596 5594 5592 5590 5588 5586 5585 5584 5584 5585 5586 5586 5587 5587 5587 5588 5588 5588 5588 5588 5589 5589 5589 5591 5591 5592 5593 5593 5593 5591 5590 5589 5588 5587 5588 5588 5589 5590 5591 5590
5599 5595 5591 5588 5585 5583 5581 5579 5577 5576 5576 5576 5577 5577 5578 5578 5578 5578 5578 5579 5579 5579 5580 5580 5580 5581 5581 5582 5583 5584 5584 5583 5583 5581 5581 5581 5580 5580 5581 5581 5583 5584 5584
5593 5589 5584 5581 5578 5575 5573 5571 5569 5568 5568 5568 5568 5568 5568 5568 5568 5568 5569 5570 5570 5570 5571 5571 5571 5572 5572 5573 5574 5576 5576 5576 5576 5576 5575 5574 5574 5574 5574 5575 5576 5577 5578
5587 5583 5578 5574 5571 5569 5566 5564 5562 5561 5561 5561 5560 5560 5560 5560 5560 5561 5561 5562 5562 5562 5562 5563 5563 5564 5564 5565 5567 5567 5568 5569 5569 5570 5570 5570 5569 5568 5569 5570 5571 5572 5573
5581 5576 5572 5568 5565 5562 5560 5558 5557 5556 5555 5555 5555 5554 5553 5553 5551 5551 5554 5555 5554 5555 5555 5556 5555 5555 5554 5556 5559 5560 5562 5563 5565 5565 5565 5565 5564 5563 5564 5565 5566 5567 5567
5575 5571 5566 5562 5560 5557 5555 5553 5552 5551 5550 5550 5549 5548 5547 5546 5542 5542 5544 5548 5548 5548 5549 5550 5550 5550 5549 5549 5550 5551 5553 5557 5559 5560 5561 5560 5558 5559 5559 5561 5562 5563 5563
5569 5565 5561 5559 5556 5553 5552 5550 5548 5547 5546 5545 5544 5544 5542 5538 5536 5537 5538 5542 5543 5542 5543 5545 5547 5546 5546 5547 5547 5547 5549 5549 5551 5555 5556 5556 5556 5556 5556 5557 5558 5559 5559
5565 5561 5558 5556 5553 5550 5548 5546 5545 5544 5542 5541 5541 5540 5538 5534 5532 5533 5534 5538 5539 5539 5539 5540 5540 5541 5541 5541 5545 5547 5548 5548 5549 5550 5552 5552 5552 5551 5552 5553 5554 5555 5556
5562 5559 5556 5554 5551 5548 5545 5543 5542 5541 5539 5538 5537 5536 5534 5532 5529 5530 5531 5536 5537 5536 5536 5536 5537 5537 5534 5535 5541 5544 5545 5544 5544 5545 5546 5546 5546 5546 5546 5549 5552 5554 5556
5559 5556 5553 5550 5548 5545 5543 5541 5540 5538 5538 5537 5535 5534 5532 5531 5528 5529 5529 5535 5535 5536 5535 5534 5531 5531 5530 5532 5537 5540 5541 5542 5543 5544 5543 5544 5545 5545 5544 5546 5550 5553 5554
5556 5553 5550 5548 5545 5543 5541 5539 5538 5538 5537 5536 5535 5533 5532 5529 5527 5527 5527 5532 5534 5535 5535 5534 5531 5528 5528 5530 5533 5536 5536 5537 5541 5543 5544 5545 5546 5547 5548 5548 5549 5551 5552
5553 5551 5548 5546 5545 5543 5540 5539 5538 5537 5537 5536 5536 5535 5534 5531 5529 5527 5527 5527 5528 5532 5533 5533 5530 5528 5528 5530 5532 5533 5534 5536 5542 5544 5545 5545 5546 5548 5548 5549 5548 5549 5549
5553 5550 5548 5546 5544 5543 5541 5540 5540 5539 5540 5541 5540 5539 5538 5536 5533 5529 5528 5529 5529 5530 5532 5529 5529 5529 5531 5533 5533 5534 5536 5541 5544 5545 5545 5546 5547 5547 5548 5548 5549 5549 5549
5552 5550 5549 5547 5546 5544 5543 5543 5542 5541 5541 5541 5541 5541 5540 5539 5538 5537 5536 5536 5533 5534 5535 5534 5533 5533 5534 5534 5536 5539 5542 5543 5544 5545 5546 5548 5549 5550 5551 5552 5552 5552 5552
5553 5552 5551 5550 5549 5546 5546 5543 5542 5540 5540 5539 5541 5541 5541 5541 5535 5531 5533 5537 5538 5538 5536 5540 5542 5544 5544 5544 5545 5545 5546 5546 5547 5548 5549 5550 5552 5552 5553 5554 5553 5553 5553
5555 5554 5555 5554 5552 5552 5550 5547 5540 5540 5537 5536 5535 5535 5539 5536 5535 5534 5534 5534 5535 5536 5539 5546 5548 5549 5549 5549 5550 5550 5550 5550 5550 5550 5552 5553 5554 5554 5555 5555 5555 5554 5554
5557 5557 5558 5558 5557 5556 5554 5553 5551 5545 5541 5540 5539 5539 5538 5538 5538 5538 5539 5539 5540 5540 5546 5551 5552 5552 5553 5554 5554 5554 5554 5554 5554 5555 5555 5555 5556 5556 5556 5556 5557 5556 5556
5561 5558 5559 5559 5560 5560 5559 5558 5558 5557 5556 5555 5549 5546 5545 5544 5544 5544 5543 5544 5551 5550 5555 5556 5557 5557 5558 5558 5558 5558 5558 5558 5558 5558 5558 5558 5558 5558 5558 5558 5558 5557 5556
5565 5564 5563 5564 5564 5564 5563 5564 5564 5562 5562 5563 5563 5558 5553 5552 5550 5550 5550 5554 5561 5563 5564 5564 5564 5564 5563 5563 5562 5562 5562 5561 5561 5560 5561 5560 5561 5560 5560 5560 5560 5556 5554
5567 5563 5563 5566 5568 5568 5568 5569 5568 5568 5568 5568 5569 5569 5566 5564 5566 5565 5563 5565 5567 5569 5570 5570 5570 5569 5568 5568 5567 5567 5566 5565 5565 5565 5565 5564 5563 5563 5562 5561 5561 5560 5558
5574 5571 5564 5568 5572 5573 5573 5573 5573 5573 5573 5574 5574 5573 5567 5572 5574 5574 5575 5575 5575 5575 5575 5574 5574 5574 5574 5573 5573 5572 5570 5570 5569 5569 5568 5567 5566 5565 5564 5563 5562 5561 5560
5579 5579 5577 5578 5578 5577 5578 5578 5578 5578 5579 5579 5580 5580 5572 5575 5580 5581 5582 5582 5581 5580 5579 5578 5579 5579 5579 5578 5577 5575 5574 5573 5572 5571 5569 5569 5568 5567 5566 5565 5563 5562 5560
5582 5583 5583 5583 5582 5579 5580 5582 5583 5583 5584 5584 5585 5585 5585 5585 5586 5586 5587 5587 5586 5585 5583 5582 5581 5583 5583 5581 5579 5578 5577 5576 5574 5572 5570 5569 5569 5568 5567 5566 5564 5562 5561
5588 5588 5588 5587 5587 5587 5588 5588 5588 5588 5588 5589 5589 5589 5589 5589 5590 5590 5590 5591 5590 5589 5588 5587 5587 5587 5585 5583 5582 5581 5580 5576 5574 5572 5570 5570 5569 5568 5568 5566 5564 5563 5560
5594 5593 5593 5593 5593 5593 5593 5592 5593 5593 5593 5593 5593 5593 5594 5595 5595 5595 5595 5595 5594 5594 5593 5592 5591 5590 5589 5587 5585 5584 5581 5577 5573 5571 5569 5569 5569 5567 5566 5565 5564 5562 5559
5598 5598 5598 5598 5598 5597 5597 5597 5597 5597 5597 5597 5597 5598 5598 5599 5599 5600 5599 5598 5598 5597 5596 5596 5595 5593 5592 5590 5588 5586 5582 5578 5574 5571 5567 5567 5568 5568 5566 5564 5563 5560 5558